Time,TemperatureF,DewpointF,PressureIn,WindDirection,WindDirectionDegrees,WindSpeedMPH,WindSpeedGustMPH,Humidity,HourlyPrecipIn,Conditions,Clouds,dailyrainin,SoftwareType,DateUTC
2013-04-05 00:04:00,37.6,23.7,30.00,SW,230,0.0,3.0,57,0.00,CLR,,0.00,WeatherDisplay:10.37,2013-04-05 04:04:00,
2013-04-05 00:09:00,37.6,23.7,30.00,SSW,205,0.0,2.0,57,0.00,CLR,,0.00,WeatherDisplay:10.37,2013-04-05 04:09:00,
2013-04-05 00:14:00,37.6,23.7,30.00,SSW,192,3.0,3.0,57,0.00,CLR,,0.00,WeatherDisplay:10.37,2013-04-05 04:14:00,
2013-04-05 00:19:00,37.6,23.7,30.00,South,184,2.0,3.0,57,0.00,CLR,,0.00,WeatherDisplay:10.37,2013-04-05 04:19:00,
2013-04-05 00:29:00,37.8,24.3,30.00,SSW,198,1.0,3.0,58,0.00,CLR,,0.00,WeatherDisplay:10.37,2013-04-05 04:29:00,
2013-04-05 00:34:00,37.6,23.7,30.00,SW,219,1.0,2.0,57,0.00,CLR,,0.00,WeatherDisplay:10.37,2013-04-05 04:34:00,
2013-04-05 00:39:00,37.8,24.3,29.97,South,187,2.0,5.0,58,0.00,CLR,,0.00,WeatherDisplay:10.37,2013-04-05 04:39:00,
2013-04-05 00:44:00,37.8,24.3,29.97,SSW,201,3.0,4.0,58,0.00,CLR,,0.00,WeatherDisplay:10.37,2013-04-05 04:44:00,
2013-04-05 00:54:00,37.8,24.3,29.97,SSW,211,1.0,5.0,58,0.00,CLR,,0.00,WeatherDisplay:10.37,2013-04-05 04:54:00,
2013-04-05 00:59:00,37.9,24.5,29.97,SW,216,2.0,6.0,58,0.00,CLR,,0.00,WeatherDisplay:10.37,2013-04-05 04:59:00,
2013-04-05 01:09:00,37.8,24.3,29.97,SSW,193,2.0,3.0,58,0.00,CLR,,0.00,WeatherDisplay:10.37,2013-04-05 05:09:00,
2013-04-05 01:14:00,37.8,24.3,29.97,South,184,1.0,3.0,58,0.00,CLR,,0.00,WeatherDisplay:10.37,2013-04-05 05:14:00,
2013-04-05 01:19:00,37.8,24.3,29.97,South,185,0.0,2.0,58,0.00,CLR,,0.00,WeatherDisplay:10.37,2013-04-05 05:19:00,
2013-04-05 01:24:00,37.6,24.1,29.97,WSW,239,1.0,5.0,58,0.00,CLR,,0.00,WeatherDisplay:10.37,2013-04-05 05:24:00,
2013-04-05 01:29:00,37.8,24.3,29.97,SSW,202,1.0,3.0,58,0.00,CLR,,0.00,WeatherDisplay:10.37,2013-04-05 05:29:00,
2013-04-05 01:34:00,37.8,24.3,29.97,SSW,200,1.0,3.0,58,0.00,CLR,,0.00,WeatherDisplay:10.37,2013-04-05 05:34:00,
2013-04-05 01:39:00,37.8,24.3,29.94,SW,227,0.0,3.0,58,0.00,CLR,,0.00,WeatherDisplay:10.37,2013-04-05 05:39:00,
2013-04-05 01:44:00,37.6,24.2,29.94,South,186,1.0,2.0,58,0.00,CLR,,0.00,WeatherDisplay:10.37,2013-04-05 05:44:00,
2013-04-05 01:54:00,37.8,24.3,29.94,SSW,202,0.0,2.0,58,0.00,CLR,,0.00,WeatherDisplay:10.37,2013-04-05 05:54:00,
2013-04-05 01:59:00,37.8,23.9,29.94,SSW,199,0.0,2.0,57,0.00,CLR,,0.00,WeatherDisplay:10.37,2013-04-05 05:59:00,
2013-04-05 02:04:00,37.8,23.9,29.94,South,191,0.0,1.0,57,0.00,CLR,,0.00,WeatherDisplay:10.37,2013-04-05 06:04:00,
2013-04-05 02:09:00,37.6,23.7,29.94,SSW,213,5.0,5.0,57,0.00,CLR,,0.00,WeatherDisplay:10.37,2013-04-05 06:09:00,
2013-04-05 02:14:00,37.6,23.7,29.94,SW,229,1.0,2.0,57,0.00,CLR,,0.00,WeatherDisplay:10.37,2013-04-05 06:14:00,
2013-04-05 02:19:00,37.8,23.9,29.94,South,172,0.0,1.0,57,0.00,CLR,,0.00,WeatherDisplay:10.37,2013-04-05 06:19:00,
2013-04-05 02:29:00,37.8,23.9,29.94,SW,219,1.0,3.0,57,0.00,CLR,,0.00,WeatherDisplay:10.37,2013-04-05 06:29:00,
2013-04-05 02:34:00,37.8,23.9,29.94,SW,215,2.0,2.0,57,0.00,CLR,,0.00,WeatherDisplay:10.37,2013-04-05 06:34:00,
2013-04-05 02:39:00,37.8,23.9,29.94,SW,221,0.0,5.0,57,0.00,CLR,,0.00,WeatherDisplay:10.37,2013-04-05 06:39:00,
2013-04-05 02:44:00,37.9,24.0,29.94,WSW,239,3.0,5.0,57,0.00,CLR,,0.00,WeatherDisplay:10.37,2013-04-05 06:44:00,
2013-04-05 02:49:00,37.9,24.0,29.94,WSW,244,1.0,2.0,57,0.00,CLR,,0.00,WeatherDisplay:10.37,2013-04-05 06:49:00,
2013-04-05 02:54:00,38.1,24.6,29.91,South,178,2.0,2.0,58,0.00,CLR,,0.00,WeatherDisplay:10.37,2013-04-05 06:54:00,
2013-04-05 02:59:00,38.1,24.6,29.91,SW,232,2.0,5.0,58,0.00,CLR,,0.00,WeatherDisplay:10.37,2013-04-05 06:59:00,
2013-04-05 03:04:00,38.1,24.6,29.91,WSW,247,1.0,3.0,58,0.00,CLR,,0.00,WeatherDisplay:10.37,2013-04-05 07:04:00,
2013-04-05 03:14:00,38.3,24.8,29.91,SW,226,1.0,3.0,58,0.00,CLR,,0.00,WeatherDisplay:10.37,2013-04-05 07:14:00,
2013-04-05 03:19:00,38.3,24.8,29.91,SSW,200,0.0,3.0,58,0.00,CLR,,0.00,WeatherDisplay:10.37,2013-04-05 07:19:00,
2013-04-05 03:24:00,38.3,25.2,29.91,SSW,205,1.0,4.0,59,0.00,CLR,,0.00,WeatherDisplay:10.37,2013-04-05 07:24:00,
2013-04-05 03:29:00,38.5,25.4,29.91,SSW,205,2.0,4.0,59,0.00,CLR,,0.00,WeatherDisplay:10.37,2013-04-05 07:29:00,
2013-04-05 03:34:00,38.5,25.4,29.91,SSW,210,2.0,5.0,59,0.00,CLR,,0.00,WeatherDisplay:10.37,2013-04-05 07:34:00,
2013-04-05 03:39:00,38.5,25.4,29.91,SW,216,2.0,2.0,59,0.00,CLR,,0.00,WeatherDisplay:10.37,2013-04-05 07:39:00,
2013-04-05 03:44:00,38.5,25.4,29.91,SW,229,1.0,5.0,59,0.00,CLR,,0.00,WeatherDisplay:10.37,2013-04-05 07:44:00,
2013-04-05 03:49:00,38.7,26.0,29.91,SW,235,1.0,3.0,60,0.00,CLR,,0.00,WeatherDisplay:10.37,2013-04-05 07:49:00,
2013-04-05 03:59:00,38.7,26.0,29.91,WSW,256,2.0,5.0,60,0.00,CLR,,0.00,WeatherDisplay:10.37,2013-04-05 07:59:00,
2013-04-05 04:09:00,38.8,26.1,29.91,West,271,1.0,3.0,60,0.00,CLR,,0.00,WeatherDisplay:10.37,2013-04-05 08:09:00,
2013-04-05 04:14:00,38.8,26.5,29.91,SW,224,1.0,2.0,61,0.00,CLR,,0.00,WeatherDisplay:10.37,2013-04-05 08:14:00,
2013-04-05 04:24:00,38.8,26.5,29.91,WSW,239,2.0,5.0,61,0.00,CLR,,0.00,WeatherDisplay:10.37,2013-04-05 08:24:00,
2013-04-05 04:29:00,38.8,26.5,29.91,WSW,240,2.0,5.0,61,0.00,CLR,,0.00,WeatherDisplay:10.37,2013-04-05 08:29:00,
2013-04-05 04:34:00,39.0,26.7,29.91,West,260,2.0,3.0,61,0.00,CLR,,0.00,WeatherDisplay:10.37,2013-04-05 08:34:00,
2013-04-05 04:39:00,39.0,26.7,29.91,WSW,252,3.0,5.0,61,0.00,CLR,,0.00,WeatherDisplay:10.37,2013-04-05 08:39:00,
2013-04-05 04:44:00,39.0,26.7,29.91,West,276,0.0,5.0,61,0.00,CLR,,0.00,WeatherDisplay:10.37,2013-04-05 08:44:00,
2013-04-05 04:49:00,39.0,26.7,29.91,West,263,1.0,3.0,61,0.00,CLR,,0.00,WeatherDisplay:10.37,2013-04-05 08:49:00,
2013-04-05 04:54:00,39.0,26.7,29.88,SSW,208,1.0,3.0,61,0.00,CLR,,0.00,WeatherDisplay:10.37,2013-04-05 08:54:00,
2013-04-05 05:04:00,39.0,26.7,29.88,SW,221,1.0,2.0,61,0.00,CLR,,0.00,WeatherDisplay:10.37,2013-04-05 09:04:00,
2013-04-05 05:09:00,39.0,27.1,29.88,SSW,199,0.0,4.0,62,0.00,CLR,,0.00,WeatherDisplay:10.37,2013-04-05 09:09:00,
2013-04-05 05:14:00,38.8,26.5,29.88,SW,225,1.0,3.0,61,0.00,CLR,,0.00,WeatherDisplay:10.37,2013-04-05 09:14:00,
2013-04-05 05:19:00,38.8,26.9,29.88,WSW,237,0.0,3.0,62,0.00,CLR,,0.00,WeatherDisplay:10.37,2013-04-05 09:19:00,
2013-04-05 05:24:00,38.8,26.9,29.88,South,183,1.0,3.0,62,0.00,CLR,,0.00,WeatherDisplay:10.37,2013-04-05 09:24:00,
2013-04-05 05:29:00,38.8,26.9,29.88,SSW,200,1.0,2.0,62,0.00,CLR,,0.00,WeatherDisplay:10.37,2013-04-05 09:29:00,
2013-04-05 05:34:00,38.8,26.9,29.88,South,178,0.0,1.0,62,0.00,CLR,,0.00,WeatherDisplay:10.37,2013-04-05 09:34:00,
2013-04-05 05:39:00,38.8,26.9,29.85,South,189,0.0,3.0,62,0.00,CLR,,0.00,WeatherDisplay:10.37,2013-04-05 09:39:00,
2013-04-05 05:44:00,38.8,27.3,29.85,SSW,211,0.0,3.0,63,0.00,CLR,,0.00,WeatherDisplay:10.37,2013-04-05 09:44:00,
2013-04-05 05:49:00,38.8,27.3,29.85,SW,225,1.0,2.0,63,0.00,CLR,,0.00,WeatherDisplay:10.37,2013-04-05 09:49:00,
2013-04-05 05:54:00,38.8,27.3,29.85,SW,230,2.0,3.0,63,0.00,CLR,,0.00,WeatherDisplay:10.37,2013-04-05 09:54:00,
2013-04-05 05:59:00,38.8,27.3,29.85,SW,219,0.0,3.0,63,0.00,CLR,,0.00,WeatherDisplay:10.37,2013-04-05 09:59:00,
2013-04-05 06:04:00,38.8,27.3,29.85,SW,215,1.0,2.0,63,0.00,CLR,,0.00,WeatherDisplay:10.37,2013-04-05 10:04:00,
2013-04-05 06:09:00,38.8,27.3,29.85,SSW,202,0.0,0.0,63,0.00,CLR,,0.00,WeatherDisplay:10.37,2013-04-05 10:09:00,
2013-04-05 06:14:00,38.8,27.3,29.85,SSW,207,0.0,1.0,63,0.00,CLR,,0.00,WeatherDisplay:10.37,2013-04-05 10:14:00,
2013-04-05 06:19:00,38.8,27.3,29.85,WSW,250,0.0,1.0,63,0.00,CLR,,0.00,WeatherDisplay:10.37,2013-04-05 10:19:00,
2013-04-05 06:24:00,38.8,27.3,29.85,WSW,238,2.0,2.0,63,0.00,CLR,,0.00,WeatherDisplay:10.37,2013-04-05 10:24:00,
2013-04-05 06:34:00,38.8,27.3,29.85,SSW,204,0.0,2.0,63,0.00,CLR,,0.00,WeatherDisplay:10.37,2013-04-05 10:34:00,
2013-04-05 06:39:00,38.8,27.3,29.85,SSW,198,1.0,1.0,63,0.00,CLR,,0.00,WeatherDisplay:10.37,2013-04-05 10:39:00,
2013-04-05 06:44:00,38.8,27.3,29.85,South,184,0.0,0.0,63,0.00,CLR,,0.00,WeatherDisplay:10.37,2013-04-05 10:44:00,
2013-04-05 06:49:00,38.7,27.2,29.85,South,180,0.0,0.0,63,0.00,CLR,,0.00,WeatherDisplay:10.37,2013-04-05 10:49:00,
2013-04-05 06:59:00,38.8,27.7,29.85,SE,142,1.0,2.0,64,0.00,CLR,,0.00,WeatherDisplay:10.37,2013-04-05 10:59:00,
2013-04-05 07:04:00,38.8,27.7,29.85,ESE,110,0.0,1.0,64,0.00,CLR,,0.00,WeatherDisplay:10.37,2013-04-05 11:04:00,
2013-04-05 07:09:00,38.8,27.7,29.85,East,94,0.0,1.0,64,0.00,CLR,,0.00,WeatherDisplay:10.37,2013-04-05 11:09:00,
2013-04-05 07:19:00,38.8,28.1,29.85,ESE,110,0.0,0.0,65,0.00,CLR,,0.00,WeatherDisplay:10.37,2013-04-05 11:19:00,
2013-04-05 07:24:00,38.8,27.7,29.85,SE,133,0.0,0.0,64,0.00,CLR,,0.00,WeatherDisplay:10.37,2013-04-05 11:24:00,
2013-04-05 07:29:00,38.8,28.1,29.85,South,184,0.0,0.0,65,0.00,CLR,,0.00,WeatherDisplay:10.37,2013-04-05 11:29:00,
2013-04-05 07:34:00,39.0,28.2,29.85,SW,221,0.0,0.0,65,0.00,CLR,,0.00,WeatherDisplay:10.37,2013-04-05 11:34:00,
2013-04-05 07:39:00,39.0,28.2,29.85,South,174,0.0,0.0,65,0.00,CLR,,0.00,WeatherDisplay:10.37,2013-04-05 11:39:00,
2013-04-05 07:44:00,39.2,28.0,29.85,East,100,0.0,0.0,64,0.00,CLR,,0.00,WeatherDisplay:10.37,2013-04-05 11:44:00,
2013-04-05 07:49:00,39.2,28.4,29.85,East,96,0.0,0.0,65,0.00,CLR,,0.00,WeatherDisplay:10.37,2013-04-05 11:49:00,
2013-04-05 07:54:00,39.4,28.6,29.85,SSE,152,0.0,0.0,65,0.00,CLR,,0.00,WeatherDisplay:10.37,2013-04-05 11:54:00,
2013-04-05 07:59:00,39.6,28.8,29.85,South,178,0.0,0.0,65,0.00,CLR,,0.00,WeatherDisplay:10.37,2013-04-05 11:59:00,
2013-04-05 08:04:00,39.6,28.8,29.85,SSE,155,0.0,0.0,65,0.00,CLR,,0.00,WeatherDisplay:10.37,2013-04-05 12:04:00,
2013-04-05 08:14:00,40.3,29.8,29.83,SSW,196,1.0,3.0,66,0.00,CLR,,0.00,WeatherDisplay:10.37,2013-04-05 12:14:00,
2013-04-05 08:19:00,40.5,30.0,29.83,West,280,1.0,2.0,66,0.00,CLR,,0.00,WeatherDisplay:10.37,2013-04-05 12:19:00,
2013-04-05 08:24:00,40.6,30.1,29.83,West,279,0.0,1.0,66,0.00,CLR,,0.00,WeatherDisplay:10.37,2013-04-05 12:24:00,
2013-04-05 08:34:00,41.0,30.5,29.83,WSW,248,2.0,4.0,66,0.00,CLR,,0.00,WeatherDisplay:10.37,2013-04-05 12:34:00,
2013-04-05 08:39:00,41.0,30.1,29.83,West,267,0.0,3.0,65,0.00,CLR,,0.00,WeatherDisplay:10.37,2013-04-05 12:39:00,
2013-04-05 08:49:00,41.3,30.8,29.83,WSW,242,0.0,1.0,66,0.00,CLR,,0.00,WeatherDisplay:10.37,2013-04-05 12:49:00,
2013-04-05 08:54:00,41.5,31.0,29.83,SW,230,0.0,1.0,66,0.00,CLR,,0.00,WeatherDisplay:10.37,2013-04-05 12:54:00,
2013-04-05 08:59:00,41.5,31.0,29.83,SW,219,0.0,3.0,66,0.00,CLR,,0.00,WeatherDisplay:10.37,2013-04-05 12:59:00,
2013-04-05 09:04:00,41.5,31.0,29.83,SSW,209,0.0,3.0,66,0.00,CLR,,0.00,WeatherDisplay:10.37,2013-04-05 13:04:00,
2013-04-05 09:14:00,41.9,31.4,29.83,West,281,0.0,2.0,66,0.00,CLR,,0.00,WeatherDisplay:10.37,2013-04-05 13:14:00,
2013-04-05 09:19:00,42.1,31.5,29.83,WNW,301,1.0,2.0,66,0.00,CLR,,0.00,WeatherDisplay:10.37,2013-04-05 13:19:00,
2013-04-05 09:24:00,42.2,31.6,29.80,West,263,2.0,5.0,66,0.00,CLR,,0.00,WeatherDisplay:10.37,2013-04-05 13:24:00,
2013-04-05 09:29:00,42.3,31.3,29.80,WSW,240,2.0,5.0,65,0.00,CLR,,0.00,WeatherDisplay:10.37,2013-04-05 13:29:00,
2013-04-05 09:34:00,42.4,31.5,29.80,WSW,239,3.0,3.0,65,0.00,CLR,,0.00,WeatherDisplay:10.37,2013-04-05 13:34:00,
2013-04-05 09:39:00,42.6,31.7,29.80,WSW,256,0.0,3.0,65,0.00,CLR,,0.00,WeatherDisplay:10.37,2013-04-05 13:39:00,
2013-04-05 09:44:00,42.8,31.8,29.80,West,275,0.0,0.0,65,0.00,CLR,,0.00,WeatherDisplay:10.37,2013-04-05 13:44:00,
2013-04-05 09:49:00,42.9,32.0,29.80,SSW,207,0.0,1.0,65,0.00,CLR,,0.00,WeatherDisplay:10.37,2013-04-05 13:49:00,
2013-04-05 09:54:00,43.0,31.6,29.80,SSW,206,0.0,3.0,64,0.00,CLR,,0.00,WeatherDisplay:10.37,2013-04-05 13:54:00,
2013-04-05 11:04:00,46.2,33.1,29.77,ESE,115,0.0,1.0,60,0.00,CLR,,0.00,WeatherDisplay:10.37,2013-04-05 15:04:00,
2013-04-05 11:14:00,47.3,33.7,29.77,WSW,247,1.0,3.0,59,0.00,CLR,,0.00,WeatherDisplay:10.37,2013-04-05 15:14:00,
2013-04-05 11:19:00,47.5,33.4,29.77,West,260,0.0,1.0,58,0.00,CLR,,0.00,WeatherDisplay:10.37,2013-04-05 15:19:00,
2013-04-05 11:24:00,47.5,33.0,29.74,WNW,282,0.0,1.0,57,0.00,CLR,,0.00,WeatherDisplay:10.37,2013-04-05 15:24:00,
2013-04-05 11:29:00,47.8,33.3,29.74,West,272,1.0,2.0,57,0.00,CLR,,0.00,WeatherDisplay:10.37,2013-04-05 15:29:00,
2013-04-05 11:34:00,48.2,33.2,29.74,SW,234,3.0,6.0,56,0.00,CLR,,0.00,WeatherDisplay:10.37,2013-04-05 15:34:00,
2013-04-05 11:39:00,48.2,33.2,29.74,SW,233,1.0,2.0,56,0.00,CLR,,0.00,WeatherDisplay:10.37,2013-04-05 15:39:00,
2013-04-05 11:44:00,48.2,33.2,29.74,SSW,207,2.0,4.0,56,0.00,CLR,,0.00,WeatherDisplay:10.37,2013-04-05 15:44:00,
2013-04-05 11:49:00,48.8,33.4,29.74,SSW,199,2.0,2.0,55,0.00,CLR,,0.00,WeatherDisplay:10.37,2013-04-05 15:49:00,
2013-04-05 11:54:00,48.9,33.4,29.74,South,170,0.0,3.0,55,0.00,CLR,,0.00,WeatherDisplay:10.37,2013-04-05 15:54:00,
2013-04-05 11:59:00,49.3,33.8,29.74,ESE,120,3.0,3.0,55,0.00,CLR,,0.00,WeatherDisplay:10.37,2013-04-05 15:59:00,
2013-04-05 12:04:00,49.5,33.5,29.74,SE,130,2.0,5.0,54,0.00,CLR,,0.00,WeatherDisplay:10.37,2013-04-05 16:04:00,
2013-04-05 12:09:00,49.8,33.8,29.71,SE,139,2.0,3.0,54,0.00,CLR,,0.00,WeatherDisplay:10.37,2013-04-05 16:09:00,
2013-04-05 12:19:00,50.5,33.6,29.71,NNE,31,2.0,3.0,52,0.00,CLR,,0.00,WeatherDisplay:10.37,2013-04-05 16:19:00,
2013-04-05 12:24:00,50.9,33.4,29.68,NE,47,2.0,5.0,51,0.00,CLR,,0.00,WeatherDisplay:10.37,2013-04-05 16:24:00,
2013-04-05 12:29:00,51.3,33.7,29.68,NNE,30,2.0,3.0,51,0.00,CLR,,0.00,WeatherDisplay:10.37,2013-04-05 16:29:00,
2013-04-05 12:34:00,51.8,33.7,29.68,NNE,33,2.0,5.0,50,0.00,CLR,,0.00,WeatherDisplay:10.37,2013-04-05 16:34:00,
2013-04-05 12:39:00,52.2,34.1,29.68,NNE,24,5.0,5.0,50,0.00,CLR,,0.00,WeatherDisplay:10.37,2013-04-05 16:39:00,
2013-04-05 12:44:00,52.5,33.9,29.68,WNW,283,2.0,5.0,49,0.00,CLR,,0.00,WeatherDisplay:10.37,2013-04-05 16:44:00,
2013-04-05 12:49:00,52.8,34.1,29.68,WNW,303,3.0,6.0,49,0.00,CLR,,0.00,WeatherDisplay:10.37,2013-04-05 16:49:00,
2013-04-05 12:59:00,53.4,34.2,29.68,NNW,346,3.0,6.0,48,0.00,CLR,,0.00,WeatherDisplay:10.37,2013-04-05 16:59:00,
2013-04-05 13:09:00,54.3,34.5,29.65,NW,320,2.0,5.0,47,0.00,CLR,,0.00,WeatherDisplay:10.37,2013-04-05 17:09:00,
2013-04-05 13:19:00,54.7,34.3,29.65,ENE,69,2.0,5.0,46,0.00,CLR,,0.00,WeatherDisplay:10.37,2013-04-05 17:19:00,
2013-04-05 13:24:00,54.7,34.3,29.65,East,80,2.0,5.0,46,0.00,CLR,,0.00,WeatherDisplay:10.37,2013-04-05 17:24:00,
2013-04-05 13:34:00,55.9,33.7,29.65,NE,41,1.0,6.0,43,0.00,CLR,,0.00,WeatherDisplay:10.37,2013-04-05 17:34:00,
2013-04-05 13:39:00,56.3,34.1,29.62,NNW,336,5.0,6.0,43,0.00,CLR,,0.00,WeatherDisplay:10.37,2013-04-05 17:39:00,
2013-04-05 13:44:00,56.7,34.4,29.62,NNW,332,5.0,6.0,43,0.00,CLR,,0.00,WeatherDisplay:10.37,2013-04-05 17:44:00,
2013-04-05 13:54:00,57.0,34.1,29.62,NNE,17,3.0,5.0,42,0.00,CLR,,0.00,WeatherDisplay:10.37,2013-04-05 17:54:00,
2013-04-05 13:59:00,57.6,34.0,29.62,NNE,20,2.0,3.0,41,0.00,CLR,,0.00,WeatherDisplay:10.37,2013-04-05 17:59:00,
2013-04-05 14:09:00,57.9,33.7,29.59,NNE,31,5.0,5.0,40,0.00,CLR,,0.00,WeatherDisplay:10.37,2013-04-05 18:09:00,
2013-04-05 14:14:00,58.1,33.9,29.59,NNE,17,5.0,6.0,40,0.00,CLR,,0.00,WeatherDisplay:10.37,2013-04-05 18:14:00,
2013-04-05 14:19:00,58.1,33.9,29.59,North,1,1.0,5.0,40,0.00,CLR,,0.00,WeatherDisplay:10.37,2013-04-05 18:19:00,
2013-04-05 14:24:00,58.5,33.6,29.59,NNW,332,2.0,3.0,39,0.00,CLR,,0.00,WeatherDisplay:10.37,2013-04-05 18:24:00,
2013-04-05 14:29:00,58.8,33.9,29.59,NNW,345,3.0,5.0,39,0.00,CLR,,0.00,WeatherDisplay:10.37,2013-04-05 18:29:00,
2013-04-05 14:39:00,59.4,33.7,29.59,NNW,344,3.0,4.0,38,0.00,CLR,,0.00,WeatherDisplay:10.37,2013-04-05 18:39:00,
2013-04-05 14:49:00,59.4,33.7,29.59,North,359,3.0,6.0,38,0.00,CLR,,0.00,WeatherDisplay:10.37,2013-04-05 18:49:00,
2013-04-05 15:04:00,59.7,33.4,29.59,NNE,12,3.0,5.0,37,0.00,CLR,,0.00,WeatherDisplay:10.37,2013-04-05 19:04:00,
2013-04-05 15:09:00,59.7,33.4,29.59,NNW,328,6.0,6.0,37,0.00,CLR,,0.00,WeatherDisplay:10.37,2013-04-05 19:09:00,
2013-04-05 15:14:00,59.7,33.4,29.59,NW,315,5.0,9.0,37,0.00,CLR,,0.00,WeatherDisplay:10.37,2013-04-05 19:14:00,
2013-04-05 15:19:00,60.1,33.7,29.59,NNW,339,5.0,6.0,37,0.00,CLR,,0.00,WeatherDisplay:10.37,2013-04-05 19:19:00,
2013-04-05 15:24:00,60.1,33.0,29.56,NNW,339,3.0,6.0,36,0.00,CLR,,0.00,WeatherDisplay:10.37,2013-04-05 19:24:00,
2013-04-05 15:29:00,60.4,33.3,29.56,NW,314,2.0,6.0,36,0.00,CLR,,0.00,WeatherDisplay:10.37,2013-04-05 19:29:00,
2013-04-05 15:39:00,60.6,33.5,29.56,WNW,288,2.0,5.0,36,0.00,CLR,,0.00,WeatherDisplay:10.37,2013-04-05 19:39:00,
2013-04-05 15:44:00,61.0,33.8,29.56,WNW,301,3.0,6.0,36,0.00,CLR,,0.00,WeatherDisplay:10.37,2013-04-05 19:44:00,
2013-04-05 15:49:00,61.0,33.9,29.56,NW,324,3.0,5.0,36,0.00,CLR,,0.00,WeatherDisplay:10.37,2013-04-05 19:49:00,
2013-04-05 15:54:00,61.2,33.3,29.56,ENE,65,3.0,6.0,35,0.00,CLR,,0.00,WeatherDisplay:10.37,2013-04-05 19:54:00,
2013-04-05 15:59:00,61.3,33.4,29.56,NNE,28,3.0,4.0,35,0.00,CLR,,0.00,WeatherDisplay:10.37,2013-04-05 19:59:00,
2013-04-05 16:09:00,61.3,33.4,29.56,NW,317,5.0,6.0,35,0.00,CLR,,0.00,WeatherDisplay:10.37,2013-04-05 20:09:00,
2013-04-05 16:14:00,61.7,33.7,29.56,North,355,3.0,6.0,35,0.00,CLR,,0.00,WeatherDisplay:10.37,2013-04-05 20:14:00,
2013-04-05 16:19:00,61.7,33.7,29.56,NNW,328,7.0,8.0,35,0.00,CLR,,0.00,WeatherDisplay:10.37,2013-04-05 20:19:00,
2013-04-05 16:29:00,61.7,33.7,29.56,NW,323,3.0,10.0,35,0.00,CLR,,0.00,WeatherDisplay:10.37,2013-04-05 20:29:00,
2013-04-05 16:34:00,61.5,33.6,29.56,NW,318,5.0,7.0,35,0.00,CLR,,0.00,WeatherDisplay:10.37,2013-04-05 20:34:00,
2013-04-05 16:39:00,61.5,33.6,29.56,NW,313,6.0,11.0,35,0.00,CLR,,0.00,WeatherDisplay:10.37,2013-04-05 20:39:00,
2013-04-05 16:44:00,61.3,33.4,29.56,NW,318,5.0,11.0,35,0.00,CLR,,0.00,WeatherDisplay:10.37,2013-04-05 20:44:00,
2013-04-05 16:49:00,61.1,33.2,29.56,NNW,340,7.0,8.0,35,0.00,CLR,,0.00,WeatherDisplay:10.37,2013-04-05 20:49:00,
2013-04-05 16:54:00,61.0,33.1,29.56,NNW,330,5.0,7.0,35,0.00,CLR,,0.00,WeatherDisplay:10.37,2013-04-05 20:54:00,
2013-04-05 17:04:00,60.8,33.0,29.56,NNW,333,5.0,5.0,35,0.00,CLR,,0.00,WeatherDisplay:10.37,2013-04-05 21:04:00,
2013-04-05 17:09:00,60.7,32.8,29.56,NW,323,6.0,9.0,35,0.00,CLR,,0.00,WeatherDisplay:10.37,2013-04-05 21:09:00,
2013-04-05 17:14:00,60.4,32.6,29.56,WNW,298,5.0,7.0,35,0.00,CLR,,0.00,WeatherDisplay:10.37,2013-04-05 21:14:00,
2013-04-05 17:24:00,60.1,32.3,29.56,NW,311,5.0,6.0,35,0.00,CLR,,0.00,WeatherDisplay:10.37,2013-04-05 21:24:00,
2013-04-05 17:29:00,59.9,32.2,29.56,WNW,300,8.0,11.0,35,0.00,CLR,,0.00,WeatherDisplay:10.37,2013-04-05 21:29:00,
2013-04-05 17:34:00,59.7,32.0,29.56,WNW,300,5.0,11.0,35,0.00,CLR,,0.00,WeatherDisplay:10.37,2013-04-05 21:34:00,
2013-04-05 17:44:00,59.4,31.0,29.59,NNW,341,3.0,6.0,34,0.00,CLR,,0.00,WeatherDisplay:10.37,2013-04-05 21:44:00,
2013-04-05 17:54:00,58.9,31.2,29.59,NW,326,5.0,7.0,35,0.00,CLR,,0.00,WeatherDisplay:10.37,2013-04-05 21:54:00,
2013-04-05 17:59:00,58.6,31.0,29.59,North,350,3.0,5.0,35,0.00,CLR,,0.00,WeatherDisplay:10.37,2013-04-05 21:59:00,
2013-04-05 18:04:00,58.3,30.7,29.59,NNE,22,6.0,7.0,35,0.00,CLR,,0.00,WeatherDisplay:10.37,2013-04-05 22:04:00,
2013-04-05 18:09:00,57.7,30.2,29.62,North,351,5.0,6.0,35,0.00,CLR,,0.00,WeatherDisplay:10.37,2013-04-05 22:09:00,
2013-04-05 18:14:00,57.4,29.2,29.62,NNW,342,5.0,7.0,34,0.00,CLR,,0.00,WeatherDisplay:10.37,2013-04-05 22:14:00,
2013-04-05 18:19:00,57.0,28.9,29.62,North,4,5.0,8.0,34,0.00,CLR,,0.00,WeatherDisplay:10.37,2013-04-05 22:19:00,
2013-04-05 18:29:00,56.3,27.5,29.62,NNW,328,3.0,6.0,33,0.00,CLR,,0.00,WeatherDisplay:10.37,2013-04-05 22:29:00,
2013-04-05 18:39:00,55.8,27.1,29.65,WNW,294,3.0,6.0,33,0.00,CLR,,0.00,WeatherDisplay:10.37,2013-04-05 22:39:00,
2013-04-05 18:44:00,55.4,26.0,29.65,NW,317,2.0,6.0,32,0.00,CLR,,0.00,WeatherDisplay:10.37,2013-04-05 22:44:00,
2013-04-05 18:49:00,54.9,26.3,29.65,NNE,22,5.0,6.0,33,0.00,CLR,,0.00,WeatherDisplay:10.37,2013-04-05 22:49:00,
2013-04-05 18:59:00,54.1,25.6,29.65,NNW,336,8.0,8.0,33,0.00,CLR,,0.00,WeatherDisplay:10.37,2013-04-05 22:59:00,
2013-04-05 19:09:00,53.6,25.2,29.65,NW,326,5.0,6.0,33,0.00,CLR,,0.00,WeatherDisplay:10.37,2013-04-05 23:09:00,
2013-04-05 19:14:00,53.1,24.7,29.65,NNW,329,6.0,7.0,33,0.00,CLR,,0.00,WeatherDisplay:10.37,2013-04-05 23:14:00,
2013-04-05 19:19:00,52.7,25.1,29.65,NNE,15,7.0,7.0,34,0.00,CLR,,0.00,WeatherDisplay:10.37,2013-04-05 23:19:00,
2013-04-05 19:29:00,51.9,23.7,29.65,NNW,342,3.0,5.0,33,0.00,CLR,,0.00,WeatherDisplay:10.37,2013-04-05 23:29:00,
2013-04-05 19:39:00,51.3,23.1,29.68,NNW,333,5.0,6.0,33,0.00,CLR,,0.00,WeatherDisplay:10.37,2013-04-05 23:39:00,
2013-04-05 19:44:00,51.1,22.9,29.68,NW,324,5.0,5.0,33,0.00,CLR,,0.00,WeatherDisplay:10.37,2013-04-05 23:44:00,
2013-04-05 19:49:00,51.1,22.9,29.68,NW,309,2.0,6.0,33,0.00,CLR,,0.00,WeatherDisplay:10.37,2013-04-05 23:49:00,
2013-04-05 19:54:00,50.7,21.8,29.68,NW,317,3.0,5.0,32,0.00,CLR,,0.00,WeatherDisplay:10.37,2013-04-05 23:54:00,
2013-04-05 19:59:00,50.2,22.1,29.68,NNW,345,3.0,5.0,33,0.00,CLR,,0.00,WeatherDisplay:10.37,2013-04-05 23:59:00,
2013-04-05 20:04:00,50.0,22.0,29.68,NNW,339,3.0,5.0,33,0.00,CLR,,0.00,WeatherDisplay:10.37,2013-04-06 00:04:00,
2013-04-05 20:09:00,49.6,21.7,29.71,NNW,348,3.0,6.0,33,0.00,CLR,,0.00,WeatherDisplay:10.37,2013-04-06 00:09:00,
2013-04-05 20:19:00,49.0,21.1,29.71,NNW,341,2.0,6.0,33,0.00,CLR,,0.00,WeatherDisplay:10.37,2013-04-06 00:19:00,
2013-04-05 20:24:00,48.9,21.0,29.71,North,349,5.0,6.0,33,0.00,CLR,,0.00,WeatherDisplay:10.37,2013-04-06 00:24:00,
2013-04-05 20:29:00,48.8,21.0,29.71,North,349,3.0,8.0,33,0.00,CLR,,0.00,WeatherDisplay:10.37,2013-04-06 00:29:00,
2013-04-05 20:34:00,48.4,20.6,29.71,NNW,338,2.0,6.0,33,0.00,CLR,,0.00,WeatherDisplay:10.37,2013-04-06 00:34:00,
2013-04-05 20:44:00,47.8,20.1,29.74,NW,320,3.0,7.0,33,0.00,CLR,,0.00,WeatherDisplay:10.37,2013-04-06 00:44:00,
2013-04-05 20:49:00,47.5,19.8,29.74,NNW,339,3.0,7.0,33,0.00,CLR,,0.00,WeatherDisplay:10.37,2013-04-06 00:49:00,
2013-04-05 20:54:00,47.4,20.4,29.74,NNW,337,5.0,6.0,34,0.00,CLR,,0.00,WeatherDisplay:10.37,2013-04-06 00:54:00,
2013-04-05 21:04:00,46.8,19.8,29.74,NW,317,3.0,5.0,34,0.00,CLR,,0.00,WeatherDisplay:10.37,2013-04-06 01:04:00,
2013-04-05 21:09:00,46.4,19.5,29.77,NNW,329,5.0,5.0,34,0.00,CLR,,0.00,WeatherDisplay:10.37,2013-04-06 01:09:00,
2013-04-05 21:14:00,46.0,19.2,29.77,NNW,336,5.0,6.0,34,0.00,CLR,,0.00,WeatherDisplay:10.37,2013-04-06 01:14:00,
2013-04-05 21:19:00,45.9,19.1,29.77,NNW,340,7.0,8.0,34,0.00,CLR,,0.00,WeatherDisplay:10.37,2013-04-06 01:19:00,
2013-04-05 21:24:00,45.7,18.9,29.77,NNW,327,2.0,9.0,34,0.00,CLR,,0.00,WeatherDisplay:10.37,2013-04-06 01:24:00,
2013-04-05 21:34:00,45.1,19.1,29.77,NNW,329,3.0,6.0,35,0.00,CLR,,0.00,WeatherDisplay:10.37,2013-04-06 01:34:00,
2013-04-05 21:44:00,44.6,18.6,29.77,NNW,339,2.0,7.0,35,0.00,CLR,,0.00,WeatherDisplay:10.37,2013-04-06 01:44:00,
2013-04-05 21:49:00,44.4,18.4,29.77,NNW,332,2.0,6.0,35,0.00,CLR,,0.00,WeatherDisplay:10.37,2013-04-06 01:49:00,
2013-04-05 21:59:00,43.9,18.0,29.77,NNW,330,5.0,6.0,35,0.00,CLR,,0.00,WeatherDisplay:10.37,2013-04-06 01:59:00,
2013-04-05 22:04:00,43.9,18.0,29.77,NNW,333,7.0,8.0,35,0.00,CLR,,0.00,WeatherDisplay:10.37,2013-04-06 02:04:00,
2013-04-05 22:14:00,43.3,17.5,29.77,NW,319,3.0,6.0,35,0.00,CLR,,0.00,WeatherDisplay:10.37,2013-04-06 02:14:00,
2013-04-05 22:19:00,43.0,17.9,29.77,NNW,336,3.0,6.0,36,0.00,CLR,,0.00,WeatherDisplay:10.37,2013-04-06 02:19:00,
2013-04-05 22:24:00,43.0,17.8,29.80,NNW,337,3.0,4.0,36,0.00,CLR,,0.00,WeatherDisplay:10.37,2013-04-06 02:24:00,
2013-04-05 22:39:00,42.4,18.0,29.80,North,350,7.0,10.0,37,0.00,CLR,,0.00,WeatherDisplay:10.37,2013-04-06 02:39:00,
2013-04-05 22:49:00,42.1,18.3,29.80,NW,306,8.0,8.0,38,0.00,CLR,,0.00,WeatherDisplay:10.37,2013-04-06 02:49:00,
2013-04-05 22:54:00,42.1,18.3,29.80,NNW,336,3.0,6.0,38,0.00,CLR,,0.00,WeatherDisplay:10.37,2013-04-06 02:54:00,
2013-04-05 23:09:00,41.5,17.8,29.80,NW,318,3.0,4.0,38,0.00,CLR,,0.00,WeatherDisplay:10.37,2013-04-06 03:09:00,
2013-04-05 23:14:00,41.2,17.5,29.80,NW,315,3.0,5.0,38,0.00,CLR,,0.00,WeatherDisplay:10.37,2013-04-06 03:14:00,
2013-04-05 23:19:00,41.2,17.5,29.80,North,7,6.0,6.0,38,0.00,CLR,,0.00,WeatherDisplay:10.37,2013-04-06 03:19:00,
2013-04-05 23:24:00,41.1,17.4,29.80,NNW,340,3.0,8.0,38,0.00,CLR,,0.00,WeatherDisplay:10.37,2013-04-06 03:24:00,
2013-04-05 23:29:00,41.0,17.3,29.80,NNW,327,3.0,5.0,38,0.00,CLR,,0.00,WeatherDisplay:10.37,2013-04-06 03:29:00,
2013-04-05 23:34:00,40.6,17.6,29.80,NNW,339,2.0,4.0,39,0.00,CLR,,0.00,WeatherDisplay:10.37,2013-04-06 03:34:00,
2013-04-05 23:39:00,40.3,17.3,29.80,NNW,336,2.0,2.0,39,0.00,CLR,,0.00,WeatherDisplay:10.37,2013-04-06 03:39:00,
2013-04-05 23:44:00,40.1,17.1,29.80,North,2,3.0,3.0,39,0.00,CLR,,0.00,WeatherDisplay:10.37,2013-04-06 03:44:00,
2013-04-05 23:54:00,39.9,16.9,29.80,North,355,2.0,3.0,39,0.00,CLR,,0.00,WeatherDisplay:10.37,2013-04-06 03:54:00,
2013-04-05 23:59:00,39.7,16.8,29.80,NNW,327,2.0,3.0,39,0.00,CLR,,0.00,WeatherDisplay:10.37,2013-04-06 03:59:00,